Date,TemperatureHighF,TemperatureAvgF,TemperatureLowF,DewpointHighF,DewpointAvgF,DewpointLowF,HumidityHigh,HumidityAvg,HumidityLow,PressureMaxIn,PressureMinIn,WindSpeedMaxMPH,WindSpeedAvgMPH,GustSpeedMaxMPH,PrecipitationSumIn
2013-11-1,71,60,50,61,54,41,98,82,36,29.67,29.39,2,0,7,0.56
2013-11-2,62,50,41,47,41,37,93,73,45,29.96,29.54,3,0,8,0.00
2013-11-3,59,45,37,41,37,34,93,76,45,30.38,29.94,1,0,6,0.00
2013-11-4,54,46,41,38,35,32,79,66,47,30.53,30.38,3,1,6,0.00
2013-11-5,59,47,37,44,34,25,87,63,29,30.61,30.44,2,0,5,0.00
2013-11-6,64,55,52,55,52,45,95,88,71,30.44,30.02,2,0,6,0.09
2013-11-7,65,54,42,58,44,23,97,71,28,30.06,29.83,4,1,10,0.06
2013-11-8,56,44,33,32,25,9,76,52,15,30.37,30.06,4,1,10,0.00
2013-11-9,53,45,36,37,30,22,76,56,40,30.45,30.26,2,0,8,0.00
2013-11-10,69,55,45,36,30,23,65,41,23,30.26,30.10,3,1,13,0.00
2013-11-11,58,47,40,36,32,28,72,56,34,30.29,30.12,3,0,7,0.00
2013-11-12,58,44,27,39,28,12,67,54,38,30.52,30.05,5,2,16,0.00
2013-11-13,50,34,25,19,11,-1,60,41,17,30.76,30.50,4,1,10,0.00
2013-11-14,56,40,29,23,18,11,64,44,21,30.71,30.47,2,0,7,0.00
2013-11-15,49,45,36,48,37,20,97,76,43,30.49,30.23,0,0,2,0.31
2013-11-16,54,52,48,53,51,48,98,97,94,30.24,30.12,1,0,6,0.04
2013-11-17,58,56,54,58,55,53,98,96,93,30.14,29.75,1,0,3,0.89
2013-11-18,69,58,47,59,44,24,98,64,23,29.84,29.68,4,1,17,0.01
2013-11-19,54,46,40,34,29,23,70,52,39,30.25,29.80,6,2,15,0.00
2013-11-20,48,43,37,30,27,24,65,53,41,30.50,30.24,5,2,11,0.00
2013-11-21,51,47,43,49,44,33,97,90,65,30.51,30.40,3,0,10,0.14
2013-11-22,57,53,49,56,53,48,98,98,97,30.41,30.03,1,0,2,0.07
2013-11-23,56,50,35,56,39,9,98,72,24,30.13,29.96,6,2,18,0.00
2013-11-24,43,32,26,21,14,3,67,48,19,30.73,30.12,6,1,13,0.00
2013-11-25,39,32,24,27,10,2,86,41,24,30.79,30.49,3,1,7,0.00
2013-11-26,48,43,32,46,42,28,97,95,85,30.49,29.54,5,1,12,0.70
2013-11-27,47,34,24,46,26,15,96,75,58,30.36,29.45,8,3,28,0.10
2013-11-28,47,31,22,27,20,14,82,63,32,30.74,30.36,3,1,10,0.00
2013-11-29,55,40,29,29,25,20,83,58,28,30.75,30.63,3,1,7,0.00
2013-11-30,46,37,28,28,24,22,84,63,40,30.73,30.52,3,1,8,0.00